Location: Newark
(34.1333°N, 7.9667°W)
Time: 11:04:24
(UTC+00:00)

DUCHIFAT 1 - Visible Passes

Search period start: 05 June 2023 00:00
Search period end: 15 June 2023 00:00
Orbit: 567 x 580 km, 98.1° (Epoch: 05 June)

Date Brightness Start Highest point End Pass type
(mag) Time Alt. Az. Time Alt. Az. Time Alt. Az.
05 Jun ? 03:41:59 10° NNE 03:46:04 60° E 03:49:00 18° S visible
06 Jun ? 03:44:55 10° NNE 03:49:01 66° E 03:52:01 18° S visible
07 Jun ? 03:47:51 10° NNE 03:51:58 72° ESE 03:55:01 17° S visible
08 Jun ? 03:50:46 10° NNE 03:54:54 78° ESE 03:58:01 17° S visible
09 Jun ? 03:53:41 10° NNE 03:57:49 84° ESE 04:00:58 17° S visible
10 Jun ? 03:56:36 10° NNE 04:00:44 89° WNW 04:03:56 16° SSW visible
11 Jun ? 03:59:30 10° N 04:03:38 82° WNW 04:06:52 16° SSW visible
12 Jun ? 04:02:23 10° N 04:06:31 76° WNW 04:09:48 15° SSW visible
13 Jun ? 04:05:16 10° N 04:09:22 70° WNW 04:12:43 15° SSW visible
14 Jun ? 04:08:09 10° N 04:12:14 64° WNW 04:15:37 14° SSW visible
